• en Belgique
  • Liste des pays
  • À 7 jours
  • Température de l'eau
  • Carte satellitaire
  • Carte météo
  • Widgets météo
  • user-avatar
    Se connecter

    Météo par heure à Audenarde

    Ce jour, 21 Février, Mercredi

    Heure Température Précipitation Vent Pression Humidité
    00:00 -2°C° 0 mm 4 m/s 766 mmHg 79%
    01:00 -1°C° 0 mm 3 m/s 766 mmHg 80%
    02:00 -1°C° 0 mm 3 m/s 766 mmHg 81%
    03:00 -2°C° 0 mm 3 m/s 766 mmHg 82%
    04:00 -2°C° 0 mm 3 m/s 766 mmHg 82%
    05:00 -2°C° 0 mm 3 m/s 767 mmHg 83%
    06:00 -3°C° 0 mm 4 m/s 767 mmHg 85%
    07:00 -2°C° 0 mm 4 m/s 767 mmHg 79%
    08:00 -1°C° 0 mm 4 m/s 767 mmHg 74%
    09:00 0°C° 0 mm 4 m/s 767 mmHg 68%
    10:00 +1°C° 0 mm 4 m/s 767 mmHg 63%
    11:00 +3°C° 0 mm 4 m/s 767 mmHg 58%
    12:00 +4°C° 0 mm 4 m/s 767 mmHg 53%
    13:00 +4°C° 0 mm 4 m/s 767 mmHg 53%
    14:00 +4°C° 0 mm 4 m/s 766 mmHg 52%
    15:00 +3°C° 0 mm 5 m/s 766 mmHg 52%
    16:00 +3°C° 0 mm 4 m/s 766 mmHg 57%
    17:00 +1°C° 0 mm 4 m/s 766 mmHg 62%
    18:00 0°C° 0 mm 3 m/s 766 mmHg 67%
    19:00 0°C° 0 mm 3 m/s 766 mmHg 68%
    20:00 0°C° 0 mm 3 m/s 766 mmHg 70%
    21:00 -1°C° 0 mm 3 m/s 766 mmHg 71%
    22:00 -2°C° 0 mm 4 m/s 766 mmHg 72%
    23:00 -2°C° 0 mm 4 m/s 766 mmHg 73%

    Demain, 22 Février, Jeudi

    Heure Température Précipitation Vent Pression Humidité
    00:00 -3°C° 0 mm 4 m/s 766 mmHg 74%
    01:00 -3°C° 0 mm 4 m/s 766 mmHg 75%
    02:00 -3°C° 0 mm 4 m/s 766 mmHg 76%
    03:00 -3°C° 0 mm 4 m/s 766 mmHg 76%
    04:00 -3°C° 0 mm 4 m/s 766 mmHg 76%
    05:00 -3°C° 0 mm 4 m/s 766 mmHg 76%
    06:00 -3°C° 0 mm 4 m/s 766 mmHg 75%
    07:00 -2°C° 0 mm 5 m/s 766 mmHg 70%
    08:00 -2°C° 0 mm 5 m/s 766 mmHg 64%
    09:00 -2°C° 0 mm 6 m/s 766 mmHg 58%
    10:00 -1°C° 0 mm 6 m/s 766 mmHg 53%
    11:00 +2°C° 0 mm 6 m/s 766 mmHg 47%
    12:00 +3°C° 0 mm 6 m/s 766 mmHg 41%
    13:00 +3°C° 0 mm 6 m/s 765 mmHg 42%
    14:00 +3°C° 0 mm 6 m/s 765 mmHg 42%
    15:00 +3°C° 0 mm 6 m/s 765 mmHg 42%
    16:00 +2°C° 0 mm 6 m/s 765 mmHg 48%
    17:00 +1°C° 0 mm 5 m/s 765 mmHg 53%
    18:00 -1°C° 0 mm 4 m/s 765 mmHg 58%
    19:00 -1°C° 0 mm 5 m/s 765 mmHg 61%
    20:00 -1°C° 0 mm 5 m/s 765 mmHg 64%
    21:00 -2°C° 0 mm 5 m/s 766 mmHg 66%
    22:00 -2°C° 0 mm 4 m/s 766 mmHg 68%
    23:00 -2°C° 0 mm 4 m/s 766 mmHg 70%

    Après-demain, 23 Février, Vendredi

    Heure Température Précipitation Vent Pression Humidité
    00:00 -3°C° 0 mm 4 m/s 766 mmHg 72%
    01:00 -3°C° 0 mm 4 m/s 765 mmHg 72%
    02:00 -3°C° 0 mm 4 m/s 765 mmHg 72%
    03:00 -3°C° 0 mm 4 m/s 765 mmHg 73%
    04:00 -3°C° 0 mm 4 m/s 765 mmHg 73%
    05:00 -3°C° 0 mm 4 m/s 765 mmHg 73%
    06:00 -4°C° 0 mm 4 m/s 765 mmHg 73%
    07:00 -4°C° 0 mm 5 m/s 765 mmHg 68%
    08:00 -3°C° 0 mm 6 m/s 765 mmHg 62%
    09:00 -2°C° 0 mm 6 m/s 765 mmHg 56%
    10:00 -1°C° 0 mm 6 m/s 765 mmHg 51%
    11:00 +1°C° 0 mm 6 m/s 765 mmHg 46%
    12:00 +2°C° 0 mm 7 m/s 764 mmHg 41%
    13:00 +2°C° 0 mm 7 m/s 764 mmHg 40%
    14:00 +2°C° 0 mm 6 m/s 764 mmHg 39%
    15:00 +2°C° 0 mm 6 m/s 763 mmHg 38%
    16:00 +1°C° 0 mm 6 m/s 763 mmHg 40%
    17:00 0°C° 0 mm 5 m/s 763 mmHg 43%
    18:00 -2°C° 0 mm 5 m/s 764 mmHg 45%
    19:00 -2°C° 0 mm 5 m/s 764 mmHg 44%
    20:00 -2°C° 0 mm 5 m/s 764 mmHg 44%
    21:00 -4°C° 0 mm 5 m/s 764 mmHg 43%
    22:00 -4°C° 0 mm 5 m/s 764 mmHg 43%
    23:00 -4°C° 0 mm 5 m/s 764 mmHg 43%

    24 Février, Samedi

    Heure Température Précipitation Vent Pression Humidité
    00:00 -5°C° 0 mm 5 m/s 764 mmHg 43%
    01:00 -5°C° 0 mm 5 m/s 764 mmHg 44%
    02:00 -5°C° 0 mm 5 m/s 764 mmHg 44%
    03:00 -5°C° 0 mm 5 m/s 763 mmHg 45%
    04:00 -5°C° 0 mm 5 m/s 763 mmHg 45%
    05:00 -5°C° 0 mm 5 m/s 763 mmHg 45%
    06:00 -5°C° 0 mm 6 m/s 763 mmHg 45%
    07:00 -4°C° 0 mm 6 m/s 763 mmHg 42%
    08:00 -3°C° 0 mm 7 m/s 763 mmHg 39%
    09:00 -2°C° 0 mm 7 m/s 763 mmHg 35%
    10:00 -1°C° 0 mm 7 m/s 763 mmHg 34%
    11:00 +1°C° 0 mm 8 m/s 763 mmHg 33%
    12:00 +2°C° 0 mm 8 m/s 763 mmHg 32%
    13:00 +2°C° 0 mm 8 m/s 763 mmHg 33%
    14:00 +4°C° 0 mm 8 m/s 763 mmHg 34%
    15:00 +4°C° 0 mm 8 m/s 763 mmHg 35%
    16:00 +3°C° 0 mm 7 m/s 763 mmHg 40%
    17:00 +2°C° 0 mm 7 m/s 763 mmHg 45%
    18:00 -1°C° 0 mm 7 m/s 763 mmHg 50%
    19:00 -1°C° 0 mm 7 m/s 764 mmHg 51%
    20:00 -2°C° 0 mm 7 m/s 764 mmHg 53%
    21:00 -2°C° 0 mm 7 m/s 765 mmHg 55%
    22:00 -3°C° 0 mm 7 m/s 765 mmHg 52%
    23:00 -3°C° 0 mm 7 m/s 765 mmHg 49%

    25 Février, Dimanche

    Heure Température Précipitation Vent Pression Humidité
    00:00 -4°C° 0 mm 7 m/s 765 mmHg 46%
    01:00 -4°C° 0 mm 7 m/s 766 mmHg 44%
    02:00 -4°C° 0 mm 7 m/s 766 mmHg 42%
    03:00 -6°C° 0 mm 7 m/s 766 mmHg 40%
    04:00 -6°C° 0 mm 7 m/s 766 mmHg 38%
    05:00 -6°C° 0 mm 7 m/s 766 mmHg 36%
    06:00 -7°C° 0 mm 7 m/s 767 mmHg 34%
    07:00 -6°C° 0 mm 8 m/s 767 mmHg 32%
    08:00 -5°C° 0 mm 8 m/s 767 mmHg 31%
    09:00 -5°C° 0 mm 8 m/s 768 mmHg 29%
    10:00 -4°C° 0 mm 8 m/s 768 mmHg 28%
    11:00 -2°C° 0 mm 8 m/s 768 mmHg 26%
    12:00 -1°C° 0 mm 8 m/s 768 mmHg 25%
    13:00 -1°C° 0 mm 8 m/s 768 mmHg 25%
    14:00 -1°C° 0 mm 8 m/s 768 mmHg 26%
    15:00 -1°C° 0 mm 8 m/s 768 mmHg 26%
    16:00 -2°C° 0 mm 7 m/s 768 mmHg 28%
    17:00 -3°C° 0 mm 7 m/s 768 mmHg 29%
    18:00 -4°C° 0 mm 6 m/s 769 mmHg 31%
    19:00 -5°C° 0 mm 6 m/s 769 mmHg 31%
    20:00 -5°C° 0 mm 6 m/s 769 mmHg 32%
    21:00 -6°C° 0 mm 6 m/s 770 mmHg 32%
    22:00 -6°C° 0 mm 6 m/s 770 mmHg 33%
    23:00 -6°C° 0 mm 5 m/s 770 mmHg 35%

    26 Février, Lundi

    Heure Température Précipitation Vent Pression Humidité
    00:00 -6°C° 0 mm 5 m/s 770 mmHg 36%
    01:00 -7°C° 0 mm 5 m/s 770 mmHg 38%
    02:00 -7°C° 0 mm 5 m/s 771 mmHg 40%
    03:00 -7°C° 0 mm 5 m/s 771 mmHg 42%
    04:00 -7°C° 0 mm 5 m/s 771 mmHg 43%
    05:00 -7°C° 0 mm 5 m/s 771 mmHg 43%
    06:00 -7°C° 0 mm 5 m/s 771 mmHg 44%
    07:00 -6°C° 0 mm 6 m/s 771 mmHg 41%
    08:00 -6°C° 0 mm 6 m/s 771 mmHg 38%
    09:00 -5°C° 0 mm 6 m/s 771 mmHg 35%
    10:00 -4°C° 0 mm 6 m/s 771 mmHg 32%
    11:00 -4°C° 0 mm 6 m/s 770 mmHg 30%
    12:00 -3°C° 0 mm 6 m/s 770 mmHg 27%
    13:00 -3°C° 0 mm 6 m/s 770 mmHg 28%
    14:00 -3°C° 0 mm 6 m/s 769 mmHg 28%
    15:00 -3°C° 0 mm 6 m/s 769 mmHg 29%
    16:00 -4°C° 0 mm 6 m/s 769 mmHg 34%
    17:00 -5°C° 0 mm 5 m/s 769 mmHg 38%
    18:00 -4°C° 0 mm 4 m/s 769 mmHg 43%
    19:00 -5°C° 0 mm 4 m/s 769 mmHg 45%
    20:00 -5°C° 0 mm 4 m/s 769 mmHg 47%
    21:00 -5°C° 0 mm 4 m/s 769 mmHg 48%
    22:00 -5°C° 0 mm 4 m/s 769 mmHg 50%
    23:00 -7°C° 0 mm 4 m/s 769 mmHg 51%
    Voir plus